Other Public Products
Issued by NWS Grand Forks, ND

Home | Current Version | Previous Version | Graphics & Text | Print | Product List | Glossary On
Versions: 1 2 3 4 5 6 7 8 9 10 11 12 13 14 15 16 17 18 19 20 21 22 23 24 25 26 27 28 29 30 31 32 33 34 35 36 37 38 39 40 41 42 43 44 45 46 47 48 49 50
000
FPUS83 KFGF 011410
OPUFGF
PRAIRIE TO PINES WEATHER ROUNDUP
NATIONAL WEATHER SERVICE EASTERN NORTH DAKOTA/GRAND FORKS ND
900 AM CDT SAT AUG 01 2015

 **SATELLITE DATA USED TO AUGMENT SKY COVER AT AUTOMATED STATIONS**
 *****  WEATHER ACROSS EASTERN NORTH DAKOTA  *****

CITY           SKY/WX    TMP DP  RH WIND       PRES   REMARKS
GRAND FORKS    MOSUNNY   70  56  61 W5        29.92F
GRAND FORKS AF SUNNY     71  58  62 W2        29.93F
GRAND CITY NWS   N/A     66 N/A N/A W3          N/A
BUXTON         NOT AVBL
DEVILS LAKE    MOSUNNY   70  54  56 S5        29.92F
FARGO          SUNNY     69  54  58 CALM      29.95F
WAHPETON ARPT  SUNNY     70  55  60 CALM      29.96F
$$

 *****  WEATHER ACROSS CENTRAL AND WESTERN NORTH DAKOTA  *****

CITY           SKY/WX    TMP DP  RH WIND       PRES   REMARKS
JAMESTOWN      MOSUNNY   70  59  68 SE6       29.94F
BISMARCK       MOSUNNY   67  59  75 E5        29.90F
MINOT          SUNNY     66  52  60 SE5       29.91F
MINOT AFB      SUNNY     68  56  66 SE5       29.90F
GARRISON         N/A     68  58  70 E3        29.92S
WILLISTON      SUNNY     70  55  59 S3        29.93F
DICKINSON      SUNNY     66  52  60 NW12      29.93R
HETTINGER      SUNNY     73  53  49 W9        29.96S
$$

 *****  OTHER OBSERVATIONS NORTHEAST NORTH DAKOTA  *****

CITY           SKY/WX    TMP DP  RH WIND       PRES   REMARKS
WALHALLA       FAIR      70  55  60 MISG      29.90F
LANGDON        FAIR      66  55  68 CALM      29.94F
CAVALIER       FAIR      70  55  60 SW5       29.90F
GRAFTON        FAIR      66  57  72 W5        29.93S
CANDO          NOT AVBL
FORT TOTTEN      N/A     70  57  63 SE3       29.95S
ROLLA          FAIR      64  55  72 SW6       29.94F
RUGBY          NOT AVBL
 ***** THE ABOVE OBSERVATIONS ARE NON NWS ARE NOT QUALITY
        CONTROLLED AND MAY MIS-REPORT RAIN FOR SNOW...
$$

 *****  OTHER OBSERVATIONS SOUTHEAST NORTH DAKOTA *****

CITY           SKY/WX    TMP DP  RH WIND       PRES   REMARKS
COOPERSTOWN    NOT AVBL
VALLEY CITY    FAIR      68  63  83 S3        29.96F
OAKES            N/A     72  64  78 SE6       29.95F
GWINNER        FAIR      72  63  73 CALM      29.97S
SHEYENNE NWR     N/A     72  63  74 CALM      29.95
BUFFALO        NOT AVBL
WYNDMERE         N/A     72  63  73 SW2         N/A
 ***** THE ABOVE OBSERVATIONS ARE NON NWS ARE NOT QUALITY
       CONTROLLED AND MAY MIS-REPORT RAIN FOR SNOW...
$$

  *****  WEATHER ACROSS NORTHERN MINNESOTA  *****

CITY           SKY/WX    TMP DP  RH WIND       PRES   REMARKS
FLAG ISLAND    SUNNY     68  54  60 W12       29.87F
WARROAD        SUNNY     64  57  77 SW8       29.90F
ROSEAU         SUNNY     66  59  77 SW5       29.91F
HALLOCK        SUNNY     64  57  77 SW3       29.91S
THF RVR FALLS  SUNNY     64  55  72 CALM      29.94F
HALSTAD        NOT AVBL
FOSSTON        SUNNY     63  55  77 SW3       29.96F
BAUDETTE       SUNNY     68  55  63 W7        29.90F
WASKISH        SUNNY     68  61  77 SW6       29.93F
CROOKSTON      SUNNY     64  55  72 W3        29.95S
$$
  *****  WEATHER ACROSS CENTRAL AND WEST MINNESOTA  *****

CITY           SKY/WX    TMP DP  RH WIND       PRES   REMARKS
BEMIDJI        SUNNY     65  54  66 W3        29.96S
PARK RAPIDS    SUNNY     69  56  62 W7        29.97S
WADENA         MOSUNNY   66  59  77 W3        29.97S
DETROIT LAKES  SUNNY     68  55  64 W3        29.98F
MOORHEAD       SUNNY     66  57  72 CALM      29.96F
FERGUS FALLS   SUNNY     70  57  64 CALM      29.96F
ELBOW LAKE     FAIR      69  60  73 CALM      29.98S
MORRIS MN      SUNNY     72  64  78 CALM      29.97S
STAPLES        MOSUNNY   68  55  64 CALM      29.98S
WHEATON        SUNNY     68  63  83 CALM      29.98F
$$
  *****  WEATHER ELSEWHERE ACROSS MINNESOTA  *****

CITY           SKY/WX    TMP DP  RH WIND       PRES   REMARKS
DULUTH         SUNNY     70  53  54 NW10      29.94S
INTRNTL FALLS  SUNNY     67  56  67 VRB6      29.90S
ELY            SUNNY     64  54  68 W9        29.91S
CLOQUET        SUNNY     70  52  52 W7        29.95S
BRAINERD       SUNNY     69  56  62 W5        29.97S
HIBBING        SUNNY     69  54  58 VRB7      29.94R
ALEXANDRIA     SUNNY     72  59  63 SW3       30.00S
SAINT CLOUD    SUNNY     72  60  66 CALM      29.97F
MINNEAPOLIS    MOSUNNY   75  59  57 CALM      29.97S
$$

  *****  WEATHER ACROSS SOUTH DAKOTA  *****

CITY           SKY/WX    TMP DP  RH WIND       PRES   REMARKS
SIOUX FALLS    PTSUNNY   75  68  78 SW7       30.02S
BROOKINGS      SUNNY     68  63  83 SE3       30.03S
WATERTOWN      MOSUNNY   71  63  75 SE3       29.99F
HURON          MOSUNNY   71  67  87 SE8       29.96F
SISSETON         N/A     72  61  68 SW5       29.96F
ABERDEEN       SUNNY     68  60  75 SE5       29.95F
MITCHELL       CLOUDY    69  67  93 SE9       29.99S
PIERRE         MOSUNNY   74  61  63 SE5       29.92F
MOBRIDGE       MOSUNNY   72  63  73 SE8       29.91S
RAPID CITY     MOSUNNY   72  58  61 S6        30.01S
$$

  *****  SOME WEATHER IN NEARBY STATES *****

CITY           SKY/WX    TMP DP  RH WIND       PRES   REMARKS
GLASGOW MT     SUNNY     65  51  60 SE15      29.92F
GREAT FALLS MT SUNNY     70  36  28 SW7       30.04S
CHEYENNE WY    SUNNY     67  53  61 SW7       30.23S
SCOTTSBLUFF NE SUNNY     74  58  57 CALM      30.10R
OMAHA NE       CLOUDY    69  67  93 CALM      30.08R
DES MOINES IA  CLOUDY    77  66  68 SW7       30.04S
DAVENPORT IA   SUNNY     73  63  70 SW5       30.03S
CHICAGO IL     MOSUNNY   75  57  53 W8        29.99S
EAU CLAIRE WI  PTSUNNY   70  56  61 CALM      29.97R
LA CROSSE WI   MOSUNNY   72  60  66 S3        29.97S
$$

  *****  SOME NATIONAL WEATHER *****

CITY           SKY/WX    TMP DP  RH WIND       PRES   REMARKS
LA GUARDIA NY  PTSUNNY   84  59  42 W10       29.79S
RALEIGH NC     MOSUNNY   81  64  56 CALM      29.96S
ATLANTA GA     PTSUNNY   79  63  57 NE10      29.99S
NEW ORLEANS LA MOSUNNY   83  65  54 N12       29.93R
OKLAHOMA CITY  PTSUNNY   79  74  84 SE3       30.10R
ALBUQUERQUE NM MOSUNNY   70  59  68 NW3       30.29S
SALT LAKE CITY MOSUNNY   70  38  31 SE7       30.13S
LOS ANGELES CA CLOUDY    67  64  90 SW3       29.99R
BOISE ID       SUNNY     73  36  25 SE10      30.03R
SEATTLE WA     MOSUNNY   64  48  56 CALM      30.03R
$$

*** WEATHER ACROSS MANITOBA...SASKATCHEWAN AND ONTARIO ***
                ***ONTARIO***

CITY           SKY/WX    TMP DP  RH WIND       PRES   REMARKS
GERALDTON      PTSUNNY   63  57  82 W8        29.75F
THUNDER BAY    PTSUNNY   66  57  72 W9G18     29.83S
SIOUX LOOKOUT  PTSUNNY   64  57  77 W12G18    29.81F
TORONTO        MOSUNNY   72  54  53 NW14      29.85S
BIG TROUT LK   PTSUNNY  N/A N/A N/A W12G18      N/A
PICKLE LAKE    PTSUNNY   63  54  72 W13G21    29.71F
DRYDEN         SUNNY     64  57  77 W14G20    29.83F
KENORA         MOSUNNY   66  55  68 W9        29.87F
$$
                *** MANITOBA***

CITY           SKY/WX    TMP DP  RH WIND       PRES   REMARKS
BRANDON        MOSUNNY   63  57  82 W7        29.90F
DAUPHIN        MOSUNNY   66  55  68 W13       29.84F
ISLAND LAKE    MOSUNNY   63  55  77 W13       29.67F
PILOT MOUND      N/A     64  57  77 SW7         N/A
THE PAS        PTSUNNY   63  55  77 W12       29.81F
THOMPSON       MOSUNNY   59  50  72 W10G20    29.69F
WINNIPEG       MOSUNNY   66  55  68 W10       29.88S
LYNN LAKE      SUNNY     59  48  67 NW14G22   29.78S
CHURCHILL      LGT RAIN  48  46  93 N23G30    29.45S FOG
$$
                ***SASKATCHEWAN***

CITY           SKY/WX    TMP DP  RH WIND       PRES   REMARKS
ESTEVAN        NOT AVBL
KINDERSLEY     PTSUNNY   63  55  77 NE9       29.88F
LLOYDMINSTER   CLOUDY    61  55  82 W7        29.92F
PRINCE ALBERT  NOT AVBL
REGINA         MOSUNNY   64  54  68 S7        29.90F
YORKTON        SUNNY     63  55  77 SW5       29.89S


USA.gov is the U.S. government's official web portal to all federal, state and local government web resources and services.